TimePDT,TemperatureF,Dew PointF,Humidity,Sea Level PressureIn,VisibilityMPH,Wind Direction,Wind SpeedMPH,Gust SpeedMPH,PrecipitationIn,Events,Conditions,WindDirDegrees,DateUTC
1:53 AM,39.0,39.0,100,30.16,-9999.0,NW,4.6,-,N/A,,Overcast,310,2013-05-20 08:53:00
2:53 AM,39.0,37.9,96,30.14,10.0,NNW,4.6,-,N/A,,Mostly Cloudy,330,2013-05-20 09:53:00
3:53 AM,39.0,37.9,96,30.14,10.0,NW,5.8,-,N/A,,Partly Cloudy,320,2013-05-20 10:53:00
5:53 AM,39.0,37.9,96,30.15,-9999.0,NW,6.9,-,N/A,,Clear,320,2013-05-20 12:53:00
6:18 AM,39.2,37.4,93,30.29,-9999.0,Variable,6.9,-,N/A,,Partly Cloudy,0,2013-05-20 13:18:00
7:53 AM,42.1,39.9,92,30.16,-9999.0,Calm,Calm,-,N/A,,Partly Cloudy,0,2013-05-20 14:53:00
8:48 AM,44.6,39.2,81,30.30,10.0,Variable,3.5,-,N/A,,Mostly Cloudy,0,2013-05-20 15:48:00
8:53 AM,45.0,39.0,80,30.16,10.0,Calm,Calm,-,N/A,,Mostly Cloudy,0,2013-05-20 15:53:00
9:02 AM,44.6,39.2,81,30.30,10.0,NNW,3.5,-,N/A,,Scattered Clouds,330,2013-05-20 16:02:00
9:30 AM,44.6,39.2,81,30.29,10.0,Calm,Calm,-,N/A,,Mostly Cloudy,0,2013-05-20 16:30:00
9:53 AM,45.0,39.0,80,30.17,10.0,Calm,Calm,-,N/A,,Overcast,0,2013-05-20 16:53:00
10:22 AM,46.4,39.2,76,30.28,10.0,Calm,Calm,-,N/A,,Mostly Cloudy,0,2013-05-20 17:22:00
10:53 AM,48.0,39.0,71,30.12,10.0,Calm,Calm,-,N/A,,Overcast,0,2013-05-20 17:53:00
11:53 AM,46.9,39.0,74,30.15,10.0,North,3.5,-,N/A,,Overcast,360,2013-05-20 18:53:00
12:53 PM,48.9,39.0,69,30.08,10.0,Calm,Calm,-,N/A,,Overcast,0,2013-05-20 19:53:00
1:53 PM,54.0,37.9,55,30.05,10.0,Calm,Calm,-,N/A,,Overcast,0,2013-05-20 20:53:00
2:53 PM,52.0,37.0,57,30.05,10.0,Calm,Calm,-,N/A,,Overcast,0,2013-05-20 21:53:00
3:53 PM,53.1,34.0,48,30.03,10.0,Variable,5.8,-,N/A,,Clear,0,2013-05-20 22:53:00
4:53 PM,55.9,34.0,44,29.99,10.0,Variable,3.5,-,N/A,,Clear,0,2013-05-20 23:53:00
5:53 PM,53.1,34.0,48,29.98,10.0,South,3.5,-,N/A,,Clear,190,2013-05-21 00:53:00
7:53 PM,50.0,35.1,57,29.94,10.0,SE,5.8,-,N/A,,Clear,140,2013-05-21 02:53:00
8:53 PM,50.0,34.0,54,29.91,10.0,SE,6.9,-,N/A,,Clear,130,2013-05-21 03:53:00
9:53 PM,48.0,34.0,58,29.90,10.0,Variable,6.9,-,N/A,,Clear,0,2013-05-21 04:53:00
10:53 PM,46.9,35.1,63,29.86,10.0,SE,9.2,18.4,N/A,,Clear,140,2013-05-21 05:53:00
11:53 PM,46.9,35.1,63,29.86,10.0,SE,10.4,19.6,N/A,,Clear,140,2013-05-21 06:53:00